[[{"header":{"parameterUnit":"m.s-1","parameterCategory":1,"la1":30.2991,"la2":30.254,"lo1":-89.0895,"lo2":-89.0444,"dy":0.0017,"dx":0.0017,"nx":28,"ny":28,"refTime":"2025-05-23T09:00:00:Z","depth":0,"parameterNumber":2,"parameterNumberName":"U-component_of_WINDS"},"data":[0,0,0,0,0,0,0,0,0,0,0,0,0,0,0,0,0,0,0,0,0,0,0,0,0,0,0,0,0,0,0,0,0,0,0,0,0,0,0,0,0,0,0,0,0,0,0,0,0,0,0,0,0,0,0,0,0,0,1.1312,1.1312,0,1.1347,1.1347,1.1347,1.1317,1.1316,1.1314,1.1313,1.135,1.1352,1.1354,0,0,0,0,0,0,0,0,0,0,0,0,0,1.1218,1.122,1.1312,1.1312,1.1313,1.1347,1.1347,1.1348,1.1317,1.1316,1.1314,1.1313,1.1349,1.1352,1.1355,0,0,0,0,0,0,0,0,0,0,0,0,0,1.1257,1.1221,1.1312,1.1301,1.1301,1.1347,1.1347,1.1348,1.1317,1.1315,1.1314,1.1312,1.1349,1.1352,1.1355,1.1413,0,0,1.1365,1.1366,0,0,0,0,0,0,0,0,1.1255,1.126,1.1302,1.1302,1.1302,1.1325,1.1328,1.137,1.1318,1.1311,1.1313,1.1311,1.1344,1.1347,1.1358,1.1415,1.1416,1.1365,1.1367,1.1369,1.1369,0,0,0,0,0,0,0,1.1252,1.1258,1.1326,1.1303,1.1303,1.1295,1.1298,1.1336,1.1338,1.1312,1.1309,1.1314,1.1343,1.1355,1.1359,1.1417,1.1365,1.1368,1.137,1.1371,1.1521,1.1523,0,0,0,0,0,0,1.125,1.1256,1.1324,1.1327,1.1273,1.1298,1.1302,1.132,1.1337,1.1338,1.1316,1.1312,1.135,1.1355,1.136,1.1427,1.1369,1.1372,1.1373,1.1519,1.1521,1.1524,0,0,0,0,0,0,1.1248,1.1257,1.1323,1.1291,1.1299,1.1302,1.1322,1.1321,1.1333,1.134,1.134,1.1327,1.1349,1.1355,1.1399,1.1428,1.1373,1.1376,1.1516,1.152,1.1522,1.1564,0,0,0,0,0,0,1.1246,1.1256,1.1278,1.1292,1.1301,1.1362,1.1324,1.1323,1.1339,1.1335,1.1351,1.1352,1.1348,1.1395,1.1403,1.1432,1.1379,1.1514,1.1518,1.1521,1.156,1.1568,1.1574,0,0,0,0,0,1.1243,1.1289,1.128,1.1288,1.1328,1.1364,1.1369,1.1363,1.1341,1.1363,1.1367,1.1351,1.1424,1.1399,1.1408,1.1438,1.1512,1.1517,1.1521,1.1556,1.1566,1.1574,0,0,0,0,0,0,1.128,1.1291,1.128,1.1333,1.1347,1.1359,1.1386,1.1374,1.1396,1.1391,1.1383,1.1387,1.1434,1.1441,1.1413,1.1494,1.1464,1.1471,1.1488,1.1497,1.1505,1.1502,1.1381,0,0,0,0,0,1.1294,1.1322,1.133,1.1375,1.1383,1.1384,1.1399,1.1393,1.1408,1.1415,1.1422,1.1438,1.1464,1.1481,1.1506,1.1561,1.1563,1.1586,1.1593,1.1599,1.1605,1.1632,1.1642,1.1538,1.1538,1.1538,0,0,1.1324,1.1333,1.1352,1.1383,1.1394,1.1422,1.1389,1.1422,1.1442,1.142,1.1461,1.1467,1.1484,1.1533,1.1556,1.1541,1.1634,1.1605,1.161,1.1612,1.1638,1.1648,1.1657,1.1542,1.1541,1.1541,0,0,1.1393,1.1403,1.1441,1.1452,1.1469,1.1468,1.1477,1.149,1.1493,1.1535,1.1518,1.1543,1.1588,1.16,1.1612,1.1684,1.167,1.1692,1.1731,1.1758,1.1766,1.1773,1.1798,1.1807,1.1698,1.1698,1.1698,0,1.1428,1.147,1.1462,1.1495,1.1509,1.1489,1.1527,1.1538,1.1562,1.1572,1.1555,1.161,1.162,1.1671,1.1689,1.17,1.1709,1.169,1.1766,1.1773,1.1779,1.1802,1.1812,1.1701,1.17,1.17,1.17,0,1.1511,1.1541,1.157,1.1592,1.1609,1.1645,1.1642,1.166,1.1653,1.1654,1.1696,1.1707,1.1733,1.1744,1.1738,1.1794,1.1784,1.1767,1.1736,1.1792,1.1813,1.1822,1.1704,1.1703,1.1703,1.1702,0,0,1.1605,1.1621,1.1632,1.1641,1.1657,1.168,1.1714,1.1738,1.1753,1.1771,1.1798,1.1836,1.182,1.1833,1.1828,1.1852,1.1906,1.1831,1.1832,1.1844,1.1967,1.1979,1.199,1.1897,1.1899,1.19,1.1965,0,1.1673,1.1731,1.1725,1.178,1.1807,1.1787,1.1817,1.183,1.1832,1.1855,1.1857,1.1883,1.186,1.1868,1.1891,1.1895,1.1931,1.189,1.1922,1.1923,1.1917,1.2001,1.2015,1.2076,1.1974,1.1975,1.1976,0,1.176,1.1779,1.1837,1.1847,1.1858,1.1885,1.1905,1.1928,1.1942,1.1941,1.1956,1.1946,1.1979,1.1949,1.1994,1.1967,1.1979,1.1983,1.1985,1.1987,1.1952,1.2004,1.2095,1.2104,1.199,1.1989,1.1988,0,1.182,1.186,1.19,1.1908,1.1922,1.1941,1.1947,1.1959,1.1974,1.1992,1.2001,1.2024,1.2036,1.2054,1.2049,1.2028,1.2096,1.2065,1.2095,1.2096,1.211,1.2109,1.2203,1.212,1.212,1.212,1.212,0,1.1896,1.1932,1.1926,1.1951,1.199,1.1982,1.2021,1.2026,1.2036,1.206,1.2046,1.2069,1.2063,1.2085,1.2083,1.212,1.2126,1.2126,1.2125,1.2127,1.2127,1.2134,1.2129,1.2123,1.2122,1.2122,1.2121,0,1.197,1.1968,1.2009,1.2018,1.2021,1.205,1.2057,1.208,1.208,1.2111,1.2118,1.2119,1.2145,1.2142,1.2172,1.217,1.2216,1.221,1.2211,1.2209,1.2239,1.2236,1.2341,1.2354,1.2264,1.2265,1.2265,0,1.2017,1.2044,1.2056,1.2071,1.2078,1.2103,1.2117,1.211,1.2126,1.2143,1.2163,1.2188,1.2207,1.2249,1.2252,1.2274,1.2268,1.2303,1.2271,1.2272,1.2267,1.2265,1.2267,1.2309,1.231,1.2311,1.2312,0,1.2102,1.2099,1.212,1.2141,1.2158,1.2174,1.2188,1.2202,1.2196,1.2214,1.224,1.2255,1.2284,1.2308,1.2329,1.2335,1.2323,1.2322,1.233,1.2332,1.233,1.233,1.2227,1.2319,1.2319,1.2318,1.2318,1.2317,1.2163,1.2186,1.2197,1.222,1.223,1.2244,1.2265,1.2267,1.2289,1.2311,1.2306,1.2335,1.2347,1.2373,1.2382,1.2404,1.2392,1.2404,1.2406,1.2409,1.2412,1.2328,1.2408,1.2408,1.2408,1.2408,1.2408,0,1.2246,1.2252,1.2273,1.2293,1.2312,1.2298,1.2312,1.2329,1.2354,1.2366,1.2385,1.2414,1.2437,1.2441,1.2463,1.248,1.2475,1.2486,1.2484,1.2485,1.2423,1.2413,1.249,1.249,1.249,1.249,1.249,1.249,1.2291,1.2327,1.2326,1.2367,1.2373,1.24,1.2409,1.2422,1.2431,1.2464,1.2482,1.2485,1.2494,1.2516,1.2536,1.2537,1.2545,1.2559,1.2557,1.2498,1.249,1.2482,1.2473,1.2561,1.2561,1.2617,1.2618,1.2618]},{"header":{"parameterUnit":"m.s-1","parameterCategory":1,"la1":30.2991,"la2":30.254,"lo1":-89.0895,"lo2":-89.0444,"dy":0.0017,"dx":0.0017,"nx":28,"ny":28,"refTime":"2025-05-23T09:00:00:Z","depth":0,"parameterNumber":3,"parameterNumberName":"V-component_of_WINDS"},"data":[0,0,0,0,0,0,0,0,0,0,0,0,0,0,0,0,0,0,0,0,0,0,0,0,0,0,0,0,0,0,0,0,0,0,0,0,0,0,0,0,0,0,0,0,0,0,0,0,0,0,0,0,0,0,0,0,0,0,3.7043,3.7044,0,3.7156,3.7158,3.7159,3.7157,3.7155,3.7154,3.7152,3.7262,3.7266,3.727,0,0,0,0,0,0,0,0,0,0,0,0,0,3.6817,3.6822,3.7043,3.7044,3.7046,3.7156,3.7158,3.7159,3.7157,3.7155,3.7153,3.7151,3.726,3.7265,3.7271,0,0,0,0,0,0,0,0,0,0,0,0,0,3.6921,3.6823,3.7043,3.7058,3.7061,3.7156,3.7158,3.716,3.7157,3.7155,3.7153,3.7151,3.7259,3.7265,3.7271,3.7357,0,0,3.7291,3.7294,0,0,0,0,0,0,0,0,3.6916,3.693,3.7054,3.7057,3.706,3.714,3.7118,3.7226,3.7158,3.712,3.7152,3.7149,3.7223,3.7232,3.7258,3.7362,3.7367,3.7292,3.7296,3.7298,3.73,0,0,0,0,0,0,0,3.6908,3.6925,3.7088,3.7056,3.706,3.7057,3.7069,3.7139,3.7183,3.7123,3.7124,3.7137,3.7224,3.7252,3.7261,3.7368,3.7291,3.7297,3.7301,3.7304,3.7546,3.7549,0,0,0,0,0,0,3.6899,3.6919,3.7084,3.7091,3.6981,3.7063,3.7077,3.7117,3.7182,3.719,3.7139,3.7137,3.7242,3.7253,3.7264,3.7368,3.7298,3.7304,3.7308,3.7544,3.7547,3.755,0,0,0,0,0,0,3.6894,3.6914,3.7079,3.7005,3.7026,3.7069,3.7114,3.712,3.7148,3.7194,3.7201,3.716,3.724,3.7255,3.7334,3.7372,3.7307,3.7313,3.7541,3.7545,3.7548,3.7576,0,0,0,0,0,0,3.6888,3.6912,3.6947,3.7006,3.703,3.7149,3.7117,3.7124,3.716,3.7158,3.7216,3.7223,3.724,3.7324,3.734,3.7379,3.7318,3.7538,3.7543,3.7547,3.7572,3.758,3.7588,0,0,0,0,0,3.688,3.6949,3.6948,3.6968,3.7075,3.7152,3.7165,3.7185,3.7163,3.7197,3.7226,3.7221,3.7365,3.7332,3.7351,3.7392,3.7535,3.7541,3.7547,3.7569,3.7579,3.7588,0,0,0,0,0,0,3.6891,3.6957,3.6957,3.7048,3.7095,3.7151,3.7195,3.7196,3.7247,3.7243,3.7264,3.7277,3.7355,3.7381,3.7344,3.7477,3.7447,3.7457,3.7457,3.7468,3.7475,3.7467,3.7324,0,0,0,0,0,3.6904,3.6963,3.7017,3.7092,3.7115,3.7151,3.7185,3.7197,3.7245,3.7264,3.7299,3.7344,3.7399,3.7435,3.7488,3.7576,3.7587,3.7613,3.7621,3.7627,3.7635,3.7682,3.7693,3.7568,3.7568,3.7568,0,0,3.6931,3.6975,3.7011,3.7095,3.7133,3.7191,3.7168,3.7231,3.7274,3.7273,3.735,3.7377,3.7428,3.7511,3.755,3.7536,3.7672,3.7635,3.7639,3.7644,3.7689,3.7701,3.7711,3.7572,3.7572,3.7571,0,0,3.7012,3.7051,3.7118,3.7156,3.7213,3.7237,3.7252,3.7309,3.7328,3.7406,3.7406,3.7456,3.7551,3.7588,3.7618,3.7712,3.7708,3.7728,3.7769,3.7814,3.7824,3.7833,3.7865,3.7876,3.7736,3.7736,3.7736,0,3.7038,3.7129,3.7151,3.7215,3.7251,3.7255,3.7321,3.7356,3.7427,3.7451,3.7435,3.7554,3.7589,3.768,3.7703,3.7728,3.7745,3.7722,3.7821,3.783,3.7839,3.7869,3.7881,3.7738,3.7738,3.7738,3.7738,0,3.7157,3.722,3.7266,3.7337,3.7378,3.7443,3.7473,3.7512,3.7519,3.7544,3.7622,3.7664,3.7725,3.7748,3.7756,3.784,3.7829,3.7817,3.7787,3.7852,3.7881,3.7893,3.7741,3.774,3.774,3.7739,0,0,3.7247,3.733,3.7346,3.7378,3.7441,3.7489,3.7553,3.7615,3.7647,3.7696,3.7748,3.7829,3.7818,3.7853,3.7864,3.7904,3.7973,3.7887,3.7888,3.79,3.8067,3.8075,3.8089,3.7972,3.7974,3.7976,3.8062,0,3.7333,3.7449,3.747,3.757,3.7627,3.7631,3.7686,3.773,3.7754,3.7804,3.783,3.7886,3.7868,3.7889,3.7929,3.7957,3.8007,3.7951,3.8018,3.8021,3.8005,3.8104,3.8113,3.8193,3.8074,3.8076,3.8077,0,3.7449,3.7502,3.7608,3.7663,3.7688,3.7738,3.7796,3.7844,3.7893,3.7907,3.7947,3.7954,3.8017,3.7985,3.8072,3.8033,3.8062,3.808,3.8083,3.8089,3.8052,3.8112,3.8219,3.823,3.8096,3.8094,3.8093,0,3.7502,3.76,3.7676,3.7703,3.777,3.7804,3.7833,3.788,3.7916,3.7966,3.7989,3.8045,3.8075,3.8117,3.8138,3.8113,3.8223,3.8193,3.8235,3.8235,3.8257,3.8255,3.837,3.8278,3.8278,3.8277,3.8277,0,3.7595,3.7659,3.7701,3.7748,3.7819,3.7842,3.7911,3.7939,3.7981,3.8031,3.8038,3.8084,3.811,3.8159,3.8176,3.8244,3.8258,3.827,3.8273,3.8269,3.8267,3.8287,3.8282,3.8281,3.828,3.8279,3.8279,0,3.7666,3.7697,3.778,3.7837,3.7852,3.7902,3.795,3.7994,3.8018,3.8081,3.8097,3.8134,3.8193,3.8218,3.829,3.8301,3.8379,3.8379,3.8363,3.8364,3.8405,3.84,3.8535,3.8553,3.845,3.8451,3.8452,0,3.7723,3.7773,3.7835,3.787,3.7901,3.7957,3.7994,3.8019,3.8056,3.8115,3.8152,3.8211,3.826,3.8353,3.8384,3.8439,3.8439,3.8483,3.8447,3.8441,3.8438,3.8435,3.8439,3.8489,3.849,3.8491,3.8491,0,3.782,3.7833,3.7887,3.7947,3.7991,3.8039,3.8085,3.8112,3.8144,3.8185,3.8247,3.8284,3.8358,3.8416,3.8473,3.85,3.85,3.8502,3.8515,3.851,3.8499,3.8504,3.838,3.8499,3.8498,3.8498,3.8497,3.8497,3.7885,3.7929,3.798,3.804,3.8078,3.8121,3.8165,3.8195,3.8247,3.8311,3.8321,3.8386,3.8432,3.8508,3.8537,3.8586,3.8575,3.8594,3.8598,3.8602,3.8604,3.8492,3.8597,3.8597,3.8596,3.8596,3.8596,0,3.7981,3.8015,3.807,3.8135,3.8181,3.818,3.8231,3.8269,3.8327,3.8371,3.8419,3.8488,3.8544,3.8581,3.8637,3.8669,3.8671,3.8683,3.868,3.8686,3.8611,3.8594,3.8681,3.8681,3.8681,3.8681,3.8681,3.8681,3.8037,3.8111,3.813,3.8222,3.8254,3.832,3.8348,3.8387,3.8422,3.85,3.8548,3.8572,3.8612,3.8672,3.8722,3.8731,3.8751,3.8764,3.8772,3.8701,3.8692,3.8683,3.8668,3.8768,3.8768,3.8843,3.8843,3.8844]}]]